Location: Riedlingen
(48.1569°N, 9.4757°E)
Time: 13:30:12
(UTC+01:00)

OTV 5 (USA 277) - Pass Details

Date: 19 November 2017
Orbit: 404 x 417 km, 43.0° (Epoch: 07 September)

Event Time Altitude Azimuth Distance (km) Brightness Sun altitude
Exits shadow 05:37:38 18° 193° (SSW) 1,086 ? -19.3°
Drops below altitude 10° 05:39:34 10° 157° (SSE) 1,452 ? -19.0°
Sets 05:42:05 0° 137° (SE) 2,308 ? -18.6°
